Date String (YYYY-MM-DD hh:mm:ss) UTC,Instrument flags,Ambient pressure (hPa),Sample flow (lpm),Bypass flow (lpm),Sample temperature (°C),Ambient temperature (°C),ASC tube jacket temperature (°C),LED temperature (°C),Box temperature (°C),Sample RH (%),Span deviation,Mass concentration (μg/m³),Mass concentration (μg/m³),Mass concentration (μg/m³)
DateTimeUTC,F1_M11,P_M11,Q1_M11,Q2_M11,T1_M11,T2_M11,T3_M11,T4_M11,T5_M11,U1_M11,ZSPAN_M11,X0_M11,X2_M11,X1_M11
2021-10-25 07:00:00,,0823.4,5.00,0.00,29.1,28.2,00.0,38.3,30.8,11.4,0000.0,0010.78,0003.19,0001.95
2021-10-25 07:01:00,,0823.4,4.99,0.00,29.1,28.2,00.0,38.3,30.8,11.4,0000.0,0010.23,0003.20,0001.96
2021-10-25 07:02:00,,0823.5,5.00,0.00,29.1,28.2,00.0,38.3,30.9,11.4,0000.0,0009.65,0003.17,0001.96
2021-10-25 07:03:00,,0823.5,5.00,0.00,29.1,28.2,00.0,38.3,30.9,11.4,0000.0,0009.28,0003.16,0001.96
2021-10-25 07:04:00,,0823.5,5.01,0.00,29.1,28.2,00.0,38.3,30.9,11.4,0000.0,0009.14,0003.18,0001.97
2021-10-25 07:05:00,,0823.5,5.00,0.00,29.1,28.2,00.0,38.3,30.8,11.4,0000.0,0008.53,0003.17,0001.96
2021-10-25 07:06:00,,0823.4,5.00,0.00,29.1,28.2,00.0,38.3,30.8,11.4,0000.0,0008.89,0003.18,0001.97
2021-10-25 07:07:00,,0823.4,4.99,0.00,29.1,28.2,00.0,38.3,30.8,11.4,0000.0,0009.32,0003.20,0001.98
2021-10-25 07:08:00,,0823.4,4.98,0.00,29.1,28.1,00.0,38.3,30.8,11.4,0000.0,0009.77,0003.23,0001.98
2021-10-25 07:09:00,,0823.3,5.01,0.00,29.1,28.1,00.0,38.3,30.8,11.5,0000.0,0010.37,0003.26,0001.97
2021-10-25 07:10:00,,0823.3,5.00,0.00,29.1,28.1,00.0,38.3,30.8,11.5,0000.0,0011.34,0003.25,0001.97
2021-10-25 07:11:00,,0823.4,4.99,0.00,29.1,28.2,00.0,38.2,30.8,11.4,0000.0,0011.73,0003.22,0001.97
2021-10-25 07:12:00,,0823.4,5.01,0.00,29.1,28.1,00.0,38.2,30.8,11.4,0000.0,0012.31,0003.21,0001.95
2021-10-25 07:13:00,,0823.4,5.00,0.00,29.1,28.2,00.0,38.2,30.8,11.4,0000.0,0012.98,0003.25,0001.93
2021-10-25 07:14:00,,0823.4,4.99,0.00,29.1,28.2,00.0,38.2,30.8,11.4,0000.0,0013.70,0003.28,0001.92
2021-10-25 07:15:00,,0823.4,5.00,0.00,29.1,28.2,00.0,38.2,30.9,11.4,0000.0,0013.38,0003.25,0001.90
2021-10-25 07:16:00,,0823.3,5.01,0.00,29.1,28.2,00.0,38.2,30.9,11.4,0000.0,0012.79,0003.26,0001.90
2021-10-25 07:17:00,,0823.2,5.00,0.00,29.1,28.2,00.0,38.2,30.9,11.4,0000.0,0012.58,0003.29,0001.88
2021-10-25 07:18:00,,0823.1,4.99,0.00,29.1,28.2,00.0,38.2,30.9,11.4,0000.0,0012.24,0003.28,0001.85
2021-10-25 07:19:00,,0823.1,5.00,0.00,29.1,28.2,00.0,38.2,30.9,11.4,0000.0,0012.22,0003.27,0001.84
2021-10-25 07:20:00,,0823.0,5.00,0.00,29.1,28.2,00.0,38.2,30.9,11.4,0000.0,0011.83,0003.27,0001.84
2021-10-25 07:21:00,,0823.1,5.00,0.00,29.1,28.2,00.0,38.2,30.9,11.4,0000.0,0010.81,0003.31,0001.83
2021-10-25 07:22:00,,0823.1,5.00,0.00,29.1,28.2,00.0,38.2,30.9,11.4,0000.0,0010.41,0003.29,0001.82
2021-10-25 07:23:00,,0823.2,4.99,0.00,29.1,28.2,00.0,38.2,30.8,11.4,0000.0,0009.99,0003.30,0001.82
2021-10-25 07:24:00,,0823.2,5.00,0.00,29.1,28.2,00.0,38.2,30.8,11.4,0000.0,0009.44,0003.29,0001.82
2021-10-25 07:25:00,,0823.2,5.01,0.00,29.1,28.2,00.0,38.2,30.9,11.4,0000.0,0008.82,0003.28,0001.80
2021-10-25 07:26:00,,0823.2,5.01,0.00,29.1,28.2,00.0,38.2,30.9,11.4,0000.0,0008.62,0003.27,0001.80
2021-10-25 07:27:00,,0823.3,4.98,0.00,29.1,28.2,00.0,38.2,30.8,11.4,0000.0,0009.10,0003.25,0001.78
2021-10-25 07:28:00,,0823.3,5.00,0.00,29.1,28.2,00.0,38.2,30.8,11.4,0000.0,0009.69,0003.23,0001.78
2021-10-25 07:29:00,,0823.2,5.00,0.00,29.1,28.2,00.0,38.2,30.9,11.4,0000.0,0010.06,0003.22,0001.78
2021-10-25 07:30:00,,0823.1,5.01,0.00,29.1,28.2,00.0,38.2,30.8,11.4,0000.0,0009.88,0003.19,0001.77
2021-10-25 07:31:00,,0823.1,5.01,0.00,29.1,28.2,00.0,38.2,30.8,11.5,0000.0,0010.97,0003.18,0001.76
2021-10-25 07:32:00,,0822.9,5.00,0.00,29.1,28.2,00.0,38.2,30.8,11.5,0000.0,0011.55,0003.18,0001.76
2021-10-25 07:33:00,,0822.9,5.00,0.00,29.1,28.2,00.0,38.2,30.8,11.5,0000.0,0012.26,0003.21,0001.76
2021-10-25 07:34:00,,0823.0,5.01,0.00,29.1,28.2,00.0,38.2,30.8,11.5,0000.0,0012.36,0003.22,0001.76
2021-10-25 07:35:00,,0823.0,4.99,0.00,29.1,28.2,00.0,38.2,30.8,11.5,0000.0,0012.64,0003.24,0001.76
2021-10-25 07:36:00,,0823.0,5.01,0.00,29.1,28.2,00.0,38.2,30.9,11.5,0000.0,0013.05,0003.29,0001.78
2021-10-25 07:37:00,,0822.9,5.00,0.00,29.1,28.1,00.0,38.2,30.8,11.5,0000.0,0013.45,0003.37,0001.78
2021-10-25 07:38:00,,0823.0,4.99,0.00,29.1,28.1,00.0,38.2,30.8,11.4,0000.0,0013.61,0003.42,0001.79
2021-10-25 07:39:00,,0822.9,4.99,0.00,29.1,28.1,00.0,38.2,30.8,11.4,0000.0,0013.74,0003.40,0001.79
2021-10-25 07:40:00,,0822.8,5.00,0.00,29.1,28.1,00.0,38.2,30.9,11.5,0000.0,0013.46,0003.46,0001.80
2021-10-25 07:41:00,,0822.9,5.00,0.00,29.1,28.1,00.0,38.2,30.9,11.5,0000.0,0013.91,0003.53,0001.79
2021-10-25 07:42:00,,0823.0,4.99,0.00,29.1,28.1,00.0,38.2,30.8,11.5,0000.0,0013.79,0003.58,0001.79
2021-10-25 07:43:00,,0823.0,5.01,0.00,29.0,28.1,00.0,38.2,30.8,11.5,0000.0,0014.13,0003.68,0001.81
2021-10-25 07:44:00,,0823.0,4.99,0.00,29.0,28.1,00.0,38.2,30.8,11.6,0000.0,0014.95,0003.81,0001.83
2021-10-25 07:45:00,,0823.0,5.00,0.00,29.0,28.1,00.0,38.2,30.8,11.6,0000.0,0014.68,0003.89,0001.85
2021-10-25 07:46:00,,0823.0,5.00,0.00,29.0,28.1,00.0,38.1,30.7,11.6,0000.0,0015.16,0003.96,0001.86
2021-10-25 07:47:00,,0823.0,4.99,0.00,29.0,28.1,00.0,38.1,30.8,11.7,0000.0,0015.70,0004.06,0001.88
2021-10-25 07:48:00,,0823.1,5.01,0.00,29.0,28.1,00.0,38.1,30.8,11.7,0000.0,0015.69,0004.15,0001.92
2021-10-25 07:49:00,,0823.1,5.00,0.00,29.0,28.1,00.0,38.1,30.7,11.7,0000.0,0015.67,0004.23,0001.96
2021-10-25 07:50:00,,0823.1,4.99,0.00,29.0,28.1,00.0,38.1,30.7,11.7,0000.0,0015.59,0004.37,0001.99
2021-10-25 07:51:00,,0823.0,5.01,0.00,29.0,28.1,00.0,38.1,30.8,11.8,0000.0,0015.50,0004.47,0002.02
2021-10-25 07:52:00,,0823.0,5.00,0.00,29.0,28.1,00.0,38.1,30.7,11.8,0000.0,0015.76,0004.57,0002.07
2021-10-25 07:53:00,,0822.9,5.01,0.00,29.0,28.1,00.0,38.1,30.7,11.8,0000.0,0016.42,0004.69,0002.12
2021-10-25 07:54:00,,0823.0,5.01,0.00,29.0,28.1,00.0,38.1,30.7,11.8,0000.0,0016.45,0004.73,0002.17
2021-10-25 07:55:00,,0823.2,5.01,0.00,29.0,28.0,00.0,38.1,30.7,11.8,0000.0,0016.02,0004.74,0002.20
2021-10-25 07:56:00,,0823.1,5.01,0.00,28.9,28.0,00.0,38.1,30.7,11.8,0000.0,0015.95,0004.75,0002.21
2021-10-25 07:57:00,,0823.1,5.00,0.00,28.9,28.0,00.0,38.1,30.7,11.8,0000.0,0016.25,0004.77,0002.23
2021-10-25 07:58:00,,0823.1,5.00,0.00,28.9,28.0,00.0,38.1,30.6,11.8,0000.0,0015.36,0004.70,0002.23
2021-10-25 07:59:00,,0823.1,5.01,0.00,28.9,28.0,00.0,38.1,30.6,11.9,0000.0,0015.57,0004.61,0002.21
